8P/Tuttle (2008)

Japanese version
Home page
Updated on June 14, 2008

---------------------------------------------------------------------

* Profile

* Pictures

* Orbital Elements

Epoch 2008 Jan. 15.0 TT = JDT 2454480.5
T 2008 Jan. 27.02282 TT                                 MPC
q   1.0271342            (2000.0)            P               Q
n   0.07239258     Peri.  207.50653     -0.27030038     -0.50619163
a   5.7017306      Node   270.34153     +0.96276231     -0.13756816
e   0.8198557      Incl.   54.98302     +0.00514267     -0.85137831
P  13.61
From 770 observations 1967-2008, mean residual 0".6.  Nongravitational
   parameters A1 = +0.13, A2 = +0.0137.

* Finding Charts

* Magnitudes Graph

        m1 = 7.0 + 5 log d + 20.0 log r(t - 25)

---------------------------------------------------------------------

The orbital elements are published on M.P.E.C. 2008-A21.
The charts are made with StellaNavigator Ver.2.0 for Windows (AstroArts / ASCII).
The magnitudes graphs are made with Comet for Windows.

---------------------------------------------------------------------

Copyright(C) Seiichi Yoshida (comet@aerith.net). All rights reserved.